�������l�o���
Date,Time,MP-1(��Sv/h),MP-2(��Sv/h),MP-3(��Sv/h),MP-4(��Sv/h),MP-5(��Sv/h),MP-6(��Sv/h),MP-7(��Sv/h),����,����(m/s),���J
2023/02/23,00:00,0.155,0.140,0.217,0.213,0.213,0.122,0.079,��쐼,1.8,��
2023/02/23,00:10,0.156,0.140,0.217,0.214,0.214,0.122,0.078,��쐼,1.1,��
2023/02/23,00:20,0.155,0.141,0.217,0.213,0.213,0.122,0.079,���쐼,0.8,��
2023/02/23,00:30,0.155,0.141,0.217,0.214,0.212,0.122,0.078,-,CALM,��
2023/02/23,00:40,0.155,0.140,0.218,0.213,0.214,0.122,0.079,-,CALM,��
2023/02/23,00:50,0.155,0.140,0.218,0.214,0.212,0.123,0.078,�쓌,0.8,��
2023/02/23,01:00,0.155,0.141,0.218,0.214,0.213,0.123,0.078,���쓌,0.7,��
2023/02/23,01:10,0.155,0.140,0.218,0.214,0.214,0.123,0.078,���쓌,0.8,��
2023/02/23,01:20,0.155,0.141,0.218,0.214,0.214,0.122,0.078,-,CALM,��
2023/02/23,01:30,0.155,0.141,0.216,0.213,0.214,0.122,0.078,-,CALM,��
2023/02/23,01:40,0.155,0.140,0.218,0.213,0.213,0.123,0.078,�k��,0.7,��
2023/02/23,01:50,0.155,0.140,0.218,0.213,0.213,0.123,0.078,�k��,0.7,��
2023/02/23,02:00,0.155,0.141,0.217,0.213,0.213,0.122,0.079,�k��,0.7,��
2023/02/23,02:10,0.155,0.140,0.218,0.213,0.214,0.122,0.079,�k�k��,0.6,��
2023/02/23,02:20,0.155,0.141,0.217,0.214,0.214,0.123,0.078,�k�k��,0.9,��
2023/02/23,02:30,0.155,0.140,0.218,0.214,0.213,0.123,0.078,�k,1.3,��
2023/02/23,02:40,0.154,0.140,0.217,0.213,0.213,0.123,0.078,�k,1.8,��
2023/02/23,02:50,0.155,0.140,0.218,0.214,0.214,0.123,0.078,�k�k��,1.1,��
2023/02/23,03:00,0.155,0.141,0.218,0.214,0.212,0.122,0.078,�k,1.4,��
2023/02/23,03:10,0.155,0.141,0.218,0.214,0.213,0.123,0.078,�k,2.2,��
2023/02/23,03:20,0.156,0.140,0.218,0.213,0.212,0.122,0.078,�k�k��,1.9,��
2023/02/23,03:30,0.155,0.141,0.218,0.213,0.213,0.123,0.079,�k,1.6,��
2023/02/23,03:40,0.155,0.141,0.219,0.214,0.213,0.123,0.078,�k,1.8,��
2023/02/23,03:50,0.157,0.141,0.218,0.213,0.213,0.122,0.078,�k,1.8,��
2023/02/23,04:00,0.155,0.141,0.218,0.213,0.214,0.123,0.078,�k,0.9,��
2023/02/23,04:10,0.156,0.140,0.218,0.213,0.212,0.123,0.079,�k�k��,1.1,��
2023/02/23,04:20,0.155,0.139,0.217,0.214,0.213,0.123,0.078,�k,1.2,��
2023/02/23,04:30,0.155,0.139,0.218,0.214,0.214,0.122,0.078,�k�k��,0.6,��
2023/02/23,04:40,0.155,0.140,0.218,0.214,0.214,0.123,0.079,�k�k��,2.1,��
2023/02/23,04:50,0.155,0.141,0.218,0.213,0.212,0.123,0.079,�k�k��,2.7,��
2023/02/23,05:00,0.155,0.140,0.218,0.213,0.213,0.123,0.078,�k�k��,2.3,��
2023/02/23,05:10,0.155,0.141,0.219,0.213,0.213,0.122,0.078,�k�k��,3.2,��
2023/02/23,05:20,0.155,0.141,0.218,0.213,0.213,0.122,0.078,�k�k��,4.2,��
2023/02/23,05:30,0.156,0.140,0.217,0.213,0.214,0.123,0.078,�k�k��,4.4,��
2023/02/23,05:40,0.155,0.140,0.217,0.214,0.213,0.123,0.078,�k�k��,4.9,��
2023/02/23,05:50,0.155,0.140,0.217,0.212,0.213,0.123,0.079,�k�k��,5.0,��
2023/02/23,06:00,0.155,0.141,0.218,0.212,0.213,0.122,0.079,�k�k��,4.8,��
2023/02/23,06:10,0.156,0.141,0.218,0.214,0.213,0.123,0.078,�k�k��,5.1,��
2023/02/23,06:20,0.155,0.141,0.218,0.214,0.213,0.123,0.079,�k�k��,4.8,��
2023/02/23,06:30,0.155,0.141,0.218,0.213,0.213,0.122,0.078,�k�k��,5.0,��
2023/02/23,06:40,0.154,0.141,0.217,0.213,0.212,0.123,0.078,�k�k��,4.9,��
2023/02/23,06:50,0.155,0.141,0.217,0.214,0.213,0.122,0.079,�k�k��,4.5,��
2023/02/23,07:00,0.155,0.140,0.217,0.214,0.213,0.123,0.078,�k�k��,4.9,��
2023/02/23,07:10,0.156,0.140,0.218,0.213,0.213,0.123,0.078,�k�k��,4.4,��
2023/02/23,07:20,0.155,0.141,0.219,0.213,0.213,0.123,0.078,�k�k��,4.2,��
2023/02/23,07:30,0.156,0.140,0.217,0.213,0.214,0.123,0.078,�k�k��,4.1,�L
2023/02/23,07:40,0.156,0.140,0.217,0.214,0.214,0.123,0.079,�k�k��,4.3,��
2023/02/23,07:50,0.155,0.141,0.218,0.213,0.213,0.123,0.078,�k�k��,4.5,�L
2023/02/23,08:00,0.155,0.140,0.217,0.213,0.214,0.123,0.078,�k�k��,4.5,��
2023/02/23,08:10,0.155,0.140,0.217,0.213,0.213,0.122,0.079,�k�k��,4.1,��
2023/02/23,08:20,0.155,0.141,0.217,0.212,0.213,0.122,0.078,�k�k��,4.2,��
2023/02/23,08:30,0.156,0.142,0.218,0.213,0.214,0.123,0.078,�k�k��,3.8,��
2023/02/23,08:40,0.156,0.141,0.218,0.214,0.214,0.122,0.078,�k�k��,4.3,��
2023/02/23,08:50,0.155,0.140,0.218,0.213,0.212,0.122,0.078,�k�k��,4.5,��
2023/02/23,09:00,0.155,0.141,0.218,0.214,0.214,0.123,0.078,�k��,4.0,��
2023/02/23,09:10,0.155,0.140,0.217,0.214,0.213,0.122,0.079,�k��,4.1,��
2023/02/23,09:20,0.155,0.140,0.218,0.213,0.213,0.122,0.078,�k�k��,3.3,��
2023/02/23,09:30,0.155,0.140,0.218,0.213,0.213,0.122,0.078,�k��,3.4,��
2023/02/23,09:40,0.155,0.140,0.217,0.215,0.213,0.123,0.078,�k�k��,2.6,��
2023/02/23,09:50,0.155,0.140,0.218,0.214,0.213,0.122,0.078,�k�k��,1.7,��
2023/02/23,10:00,0.154,0.140,0.217,0.212,0.213,0.122,0.078,�k,1.6,��
2023/02/23,10:10,0.155,0.140,0.217,0.213,0.213,0.122,0.078,�k�k��,0.9,��
2023/02/23,10:20,0.154,0.139,0.218,0.213,0.214,0.122,0.078,�k,0.9,��
2023/02/23,10:30,0.155,0.139,0.217,0.211,0.214,0.122,0.077,�k�k��,2.3,��
2023/02/23,10:40,0.155,0.141,0.217,0.213,0.213,0.122,0.078,�k�k��,3.2,��
2023/02/23,10:50,0.155,0.140,0.216,0.212,0.213,0.122,0.077,�k,4.1,��
2023/02/23,11:00,0.155,0.140,0.218,0.212,0.214,0.123,0.079,�k,3.9,��
2023/02/23,11:10,0.155,0.140,0.218,0.213,0.214,0.121,0.078,�k�k��,3.3,��
2023/02/23,11:20,0.154,0.141,0.217,0.213,0.214,0.122,0.078,�k,3.9,��
2023/02/23,11:30,0.155,0.139,0.216,0.212,0.214,0.123,0.078,�k,3.5,��
2023/02/23,11:40,0.154,0.139,0.217,0.213,0.212,0.123,0.078,�k,3.0,��
2023/02/23,11:50,0.155,0.139,0.217,0.213,0.214,0.123,0.079,�k�k��,3.9,��
2023/02/23,12:00,0.155,0.140,0.217,0.213,0.214,0.121,0.077,�k�k��,3.7,��
2023/02/23,12:10,0.153,0.140,0.218,0.212,0.214,0.122,0.078,�k�k��,5.8,��
2023/02/23,12:20,0.154,0.140,0.217,0.212,0.214,0.121,0.078,�k�k��,6.2,��
2023/02/23,12:30,0.155,0.140,0.217,0.214,0.213,0.123,0.078,�k,5.0,��
2023/02/23,12:40,0.154,0.140,0.218,0.213,0.215,0.123,0.078,�k,5.1,��
2023/02/23,12:50,0.154,0.140,0.217,0.212,0.215,0.122,0.077,�k,5.2,��
2023/02/23,13:00,0.155,0.140,0.217,0.212,0.213,0.122,0.077,�k,5.5,��
2023/02/23,13:10,0.155,0.140,0.219,0.212,0.214,0.123,0.078,�k,5.3,��
2023/02/23,13:20,0.154,0.140,0.217,0.213,0.213,0.122,0.077,�k�k��,4.8,��
2023/02/23,13:30,0.155,0.140,0.217,0.213,0.214,0.123,0.078,�k,5.3,��
2023/02/23,13:40,0.155,0.139,0.217,0.213,0.214,0.123,0.078,�k,5.3,��
2023/02/23,13:50,0.155,0.140,0.217,0.213,0.213,0.122,0.077,�k,5.7,��
2023/02/23,14:00,0.154,0.140,0.218,0.213,0.214,0.122,0.078,�k�k��,5.2,��
2023/02/23,14:10,0.155,0.140,0.218,0.213,0.214,0.122,0.078,�k��,3.8,��
2023/02/23,14:20,0.154,0.140,0.217,0.213,0.213,0.123,0.078,�k��,3.0,��
2023/02/23,14:30,0.155,0.140,0.217,0.213,0.214,0.121,0.077,�k��,3.6,��
2023/02/23,14:40,0.154,0.139,0.217,0.213,0.215,0.123,0.078,�k�k��,2.8,��
2023/02/23,14:50,0.155,0.140,0.217,0.213,0.213,0.122,0.078,�k,2.7,��
2023/02/23,15:00,0.155,0.140,0.218,0.214,0.214,0.123,0.078,�k,2.3,��
2023/02/23,15:10,0.155,0.141,0.217,0.215,0.213,0.123,0.079,�k,3.1,��
2023/02/23,15:20,0.154,0.140,0.218,0.214,0.213,0.122,0.077,�k��,2.4,��
2023/02/23,15:30,0.155,0.140,0.217,0.213,0.213,0.122,0.077,�k��,1.5,��
2023/02/23,15:40,0.154,0.141,0.216,0.214,0.213,0.122,0.078,���k��,1.4,��
2023/02/23,15:50,0.153,0.141,0.216,0.212,0.214,0.121,0.078,�k��,2.0,��
2023/02/23,16:00,0.155,0.139,0.217,0.214,0.213,0.122,0.078,�k��,2.2,��
2023/02/23,16:10,0.154,0.140,0.218,0.214,0.213,0.122,0.078,�k�k��,1.8,��
2023/02/23,16:20,0.154,0.140,0.218,0.214,0.213,0.122,0.078,�k��,2.1,��
2023/02/23,16:30,0.156,0.140,0.218,0.212,0.214,0.123,0.078,�k��,1.1,��
2023/02/23,16:40,0.155,0.141,0.217,0.214,0.213,0.123,0.078,�k�k��,2.5,��
2023/02/23,16:50,0.155,0.140,0.217,0.214,0.213,0.122,0.078,�k�k��,2.1,��
2023/02/23,17:00,0.155,0.140,0.217,0.213,0.214,0.122,0.077,�k,1.9,��
2023/02/23,17:10,0.155,0.140,0.218,0.214,0.213,0.123,0.078,�k�k��,1.9,��
2023/02/23,17:20,0.155,0.140,0.218,0.213,0.213,0.123,0.078,�k�k��,2.3,��
2023/02/23,17:30,0.154,0.139,0.217,0.214,0.213,0.122,0.077,�k�k��,1.7,��
2023/02/23,17:40,0.154,0.140,0.217,0.214,0.212,0.122,0.079,�k,0.9,��
2023/02/23,17:50,0.154,0.140,0.217,0.213,0.213,0.122,0.078,�k��,1.3,��
2023/02/23,18:00,0.155,0.141,0.217,0.213,0.214,0.122,0.078,���k��,2.8,��
2023/02/23,18:10,0.155,0.140,0.218,0.214,0.213,0.124,0.078,���k��,4.7,��
2023/02/23,18:20,0.154,0.141,0.218,0.214,0.213,0.123,0.078,�k��,3.0,��
2023/02/23,18:30,0.155,0.140,0.218,0.213,0.213,0.122,0.078,�k�k��,2.5,��
2023/02/23,18:40,0.155,0.141,0.217,0.213,0.213,0.122,0.078,�k�k��,2.8,��
2023/02/23,18:50,0.155,0.140,0.218,0.214,0.213,0.122,0.078,�k�k��,3.3,��
2023/02/23,19:00,0.154,0.140,0.218,0.214,0.214,0.123,0.078,�k,2.7,��
2023/02/23,19:10,0.155,0.141,0.217,0.213,0.214,0.122,0.078,�k,3.5,��
2023/02/23,19:20,0.155,0.140,0.218,0.213,0.213,0.123,0.077,�k,4.2,��
2023/02/23,19:30,0.155,0.140,0.217,0.213,0.213,0.122,0.078,�k�k��,4.2,��
2023/02/23,19:40,0.155,0.141,0.218,0.214,0.214,0.122,0.077,�k�k��,4.5,��
2023/02/23,19:50,0.155,0.140,0.218,0.213,0.214,0.122,0.078,�k�k��,5.2,��
2023/02/23,20:00,0.155,0.140,0.218,0.213,0.213,0.123,0.078,�k��,5.0,��
2023/02/23,20:10,0.154,0.140,0.218,0.214,0.214,0.123,0.078,�k��,3.9,��
2023/02/23,20:20,0.155,0.140,0.218,0.214,0.214,0.122,0.078,�k��,3.3,��
2023/02/23,20:30,0.155,0.141,0.217,0.214,0.213,0.122,0.078,�k��,5.3,��
2023/02/23,20:40,0.155,0.141,0.219,0.214,0.213,0.122,0.078,���k��,4.8,��
2023/02/23,20:50,0.155,0.140,0.218,0.214,0.214,0.123,0.079,���k��,6.2,��
2023/02/23,21:00,0.155,0.141,0.217,0.214,0.215,0.123,0.077,���k��,5.5,��
2023/02/23,21:10,0.154,0.141,0.217,0.213,0.213,0.123,0.078,���k��,5.7,��
2023/02/23,21:20,0.155,0.141,0.217,0.213,0.213,0.123,0.078,���k��,6.8,��
2023/02/23,21:30,0.154,0.141,0.217,0.213,0.214,0.123,0.078,���k��,8.2,��
2023/02/23,21:40,0.155,0.140,0.217,0.214,0.214,0.122,0.077,��,8.1,��
2023/02/23,21:50,0.154,0.140,0.218,0.214,0.213,0.123,0.078,��,7.9,��
2023/02/23,22:00,0.156,0.140,0.218,0.214,0.213,0.123,0.078,���k��,7.4,��
2023/02/23,22:10,0.155,0.140,0.218,0.214,0.212,0.123,0.078,���k��,7.7,��
2023/02/23,22:20,0.155,0.140,0.218,0.213,0.214,0.122,0.078,�k��,5.2,��
2023/02/23,22:30,0.154,0.141,0.218,0.213,0.214,0.123,0.078,�k��,3.4,��
2023/02/23,22:40,0.154,0.140,0.217,0.215,0.214,0.123,0.077,���k��,2.7,��
2023/02/23,22:50,0.155,0.141,0.217,0.213,0.213,0.123,0.079,���k��,2.4,��
2023/02/23,23:00,0.155,0.141,0.218,0.214,0.213,0.123,0.078,���k��,1.6,��
2023/02/23,23:10,0.155,0.141,0.218,0.214,0.214,0.122,0.078,���쐼,1.5,��
2023/02/23,23:20,0.154,0.140,0.218,0.214,0.214,0.123,0.078,���쐼,1.4,��
2023/02/23,23:30,0.155,0.140,0.217,0.212,0.215,0.122,0.078,���k��,1.5,��
2023/02/23,23:40,0.155,0.140,0.218,0.213,0.214,0.123,0.078,���k��,2.5,��
2023/02/23,23:50,0.155,0.141,0.218,0.213,0.213,0.123,0.078,�k��,2.2,��
